Location: Azul
(36.7830°S, 59.8500°W)
Time: 01:38:12
(UTC-03:00)

UWE-3 - Pass Details

Date: 30 October 2021
Orbit: 584 x 681 km, 97.7° (Epoch: 04 December)

Event Time Altitude Azimuth Distance (km) Brightness Sun altitude
Exits shadow 04:31:13 17° 350° (N) 1,621 ? -16.2°
Maximum altitude 04:34:28 50° 279° (W) 824 ? -15.7°
Drops below altitude 10° 04:38:53 10° 203° (SSW) 2,087 ? -14.9°
Sets 04:41:14 0° 197° (SSW) 3,022 ? -14.5°
